This demonstration page uses our WeatherBlox Daily Observations layout. Learn more.

Left ArrowRight Arrow

Hourly Observations for December 22, 2016

Temp ( °F °C ) Dew Point ( °F °C ) Humidity (%) Winds ( mph kmh ) Pressure ( in mb ) Visibility ( mi km ) Precip ( " mm )
12:20 am 00:20 Clear 34 1 27 -3 75 75 WSW 10 17 30.09 1019 10 16 N/A
12:40 am 00:40 Clear 34 1 27 -3 75 75 WSW 12 19 30.09 1019 10 16 N/A
12:59 am 00:59 Clear 36 2 27 -3 70 70 WSW 14 22 30.09 1019 10 16 N/A
1:20 am 01:20 Clear 34 1 27 -3 75 75 W 13 20 30.09 1019 10 16 N/A
1:40 am 01:40 Clear 34 1 27 -3 75 75 W 12 19 30.09 1019 10 16 N/A
1:59 am 01:59 Clear 32 undefined 27 -3 80 80 W 12 19 30.09 1019 10 16 N/A
2:20 am 02:20 Clear 32 undefined 27 -3 80 80 WSW 10 17 30.12 1020 10 16 N/A
2:40 am 02:40 Clear 30 -1 25 -4 80 80 W 9 15 30.12 1020 10 16 N/A
2:59 am 02:59 Clear 30 -1 25 -4 80 80 W 9 15 30.15 1021 10 16 N/A
3:20 am 03:20 Clear 28 -2 25 -4 86 86 W 9 15 30.15 1021 10 16 N/A
3:40 am 03:40 Clear 28 -2 25 -4 86 86 W 8 13 30.15 1021 10 16 N/A
4:00 am 04:00 Clear 28 -2 25 -4 86 86 W 9 15 30.15 1021 10 16 N/A
4:20 am 04:20 Clear 30 -1 27 -3 86 86 WNW 12 19 30.15 1021 10 16 N/A
4:39 am 04:39 Clear 32 undefined 27 -3 80 80 WNW 13 20 30.15 1021 10 16 N/A
5:00 am 05:00 Partly Cloudy 32 undefined 27 -3 80 80 WNW 13 20 30.15 1021 10 16 N/A
5:20 am 05:20 Mostly Cloudy 32 undefined 28 -2 87 87 WNW 10 17 30.15 1021 10 16 N/A
5:39 am 05:39 Cloudy 32 undefined 28 -2 87 87 W 9 15 30.18 1022 10 16 N/A
6:00 am 06:00 Cloudy 32 undefined 28 -2 87 87 W 9 15 30.18 1022 10 16 N/A
6:20 am 06:20 Cloudy 32 undefined 28 -2 87 87 WNW 10 17 30.18 1022 10 16 N/A
6:39 am 06:39 Cloudy 34 1 28 -2 81 81 WNW 10 17 30.21 1023 10 16 N/A
7:00 am 07:00 Cloudy 34 1 28 -2 81 81 WNW 9 15 30.21 1023 10 16 N/A
7:20 am 07:20 Cloudy 34 1 28 -2 81 81 WNW 12 19 30.21 1023 10 16 N/A
7:39 am 07:39 Cloudy 34 1 28 -2 81 81 WNW 9 15 30.24 1024 10 16 N/A
8:00 am 08:00 Cloudy 34 1 28 -2 81 81 WNW 8 13 30.24 1024 10 16 N/A
8:20 am 08:20 Cloudy 34 1 28 -2 81 81 WNW 9 15 30.24 1024 10 16 N/A
8:39 am 08:39 Cloudy 34 1 28 -2 81 81 WNW 8 13 30.24 1024 10 16 N/A
9:00 am 09:00 Cloudy 34 1 28 -2 81 81 WNW 7 11 30.24 1024 10 16 N/A
9:20 am 09:20 Cloudy 34 1 28 -2 81 81 NW 9 15 30.27 1025 10 16 N/A
9:39 am 09:39 Cloudy 36 2 28 -2 75 75 NW 8 13 30.27 1025 10 16 N/A
10:00 am 10:00 Cloudy 36 2 28 -2 75 75 NW 8 13 30.30 1026 10 16 N/A
10:20 am 10:20 Cloudy 36 2 28 -2 75 75 NW 8 13 30.30 1026 10 16 N/A
10:40 am 10:40 Cloudy 36 2 30 -1 81 81 NW 8 13 30.33 1027 10 16 N/A
11:00 am 11:00 Cloudy 36 2 28 -2 75 75 NW 9 15 30.33 1027 10 16 N/A
11:19 am 11:19 Cloudy 37 3 30 -1 75 75 NW 10 17 30.33 1027 10 16 N/A
11:40 am 11:40 Cloudy 36 2 28 -2 75 75 NNW 10 17 30.33 1027 10 16 N/A
12:00 pm 12:00 Cloudy 37 3 28 -2 70 70 NNW 14 22 30.36 1028 10 16 N/A
12:20 pm 12:20 Mostly Cloudy 37 3 28 -2 70 70 NNW 13 20 30.36 1028 10 16 N/A
12:40 pm 12:40 Mostly Cloudy 37 3 28 -2 70 70 NNW 10 17 30.36 1028 10 16 N/A
1:00 pm 13:00 Partly Cloudy 39 4 28 -2 65 65 NW 9 15 30.36 1028 10 16 N/A
1:01 pm 13:01 Partly Cloudy 39 4 28 -2 65 65 NW 12 19 30.36 1028 10 16 N/A
3:20 pm 15:20 undefined N/A N/A N/A undefined N/A N/A N/A N/A
3:40 pm 15:40 undefined N/A N/A N/A undefined N/A N/A N/A N/A
4:00 pm 16:00 undefined N/A N/A N/A undefined N/A N/A N/A N/A
4:20 pm 16:20 undefined N/A N/A N/A undefined N/A N/A N/A N/A
4:40 pm 16:40 undefined N/A N/A N/A undefined N/A N/A N/A N/A
4:59 pm 16:59 undefined N/A N/A N/A undefined N/A N/A N/A N/A
5:20 pm 17:20 Sunny 34 1 28 -2 81 81 W 6 9 30.42 1030 10 16 N/A
5:40 pm 17:40 Clear 32 undefined 28 -2 87 87 W 7 11 30.42 1030 10 16 N/A
6:00 pm 18:00 Clear 32 undefined 28 -2 87 87 W 5 7 30.42 1030 10 16 N/A
6:20 pm 18:20 Clear 32 undefined 27 -3 80 80 W 5 7 30.42 1030 10 16 N/A
6:36 pm 18:36 Clear 32 undefined 28 -2 87 87 N N/A 30.42 1030 10 16 N/A
6:54 pm 18:54 Clear 30 -1 27 -3 86 86 N N/A 30.42 1030 10 16 N/A
7:14 pm 19:14 Clear 28 -2 27 -3 93 93 S 3 6 30.42 1030 10 16 N/A
7:34 pm 19:34 Clear 30 -1 27 -3 86 86 N N/A 30.42 1030 10 16 N/A
7:54 pm 19:54 Clear 28 -2 27 -3 93 93 N N/A 30.42 1030 10 16 N/A
8:14 pm 20:14 Clear 28 -2 27 -3 93 93 N N/A 30.42 1030 10 16 N/A
8:34 pm 20:34 Clear 28 -2 27 -3 93 93 SSW 3 6 30.48 1032 10 16 N/A
8:54 pm 20:54 Clear 28 -2 27 -3 93 93 N N/A 30.48 1032 10 16 N/A
9:14 pm 21:14 Clear 27 -3 27 -3 100 100 SW 3 6 30.48 1032 7 11 N/A
9:34 pm 21:34 Clear 27 -3 27 -3 100 100 N N/A 30.45 1031 7 11 N/A
9:53 pm 21:53 Clear 27 -3 27 -3 100 100 N N/A 30.48 1032 7 11 N/A
10:14 pm 22:14 Clear 27 -3 25 -4 93 93 N N/A 30.48 1032 7 11 N/A
10:34 pm 22:34 Clear 27 -3 25 -4 93 93 N N/A 30.48 1032 7 11 N/A
10:54 pm 22:54 Clear 27 -3 25 -4 93 93 S 3 6 30.48 1032 7 11 N/A
11:14 pm 23:14 Clear 27 -3 25 -4 93 93 S 3 6 30.48 1032 7 11 N/A
11:33 pm 23:33 Clear 27 -3 25 -4 93 93 S 3 6 30.48 1032 7 11 N/A
11:54 pm 23:54 Clear 27 -3 25 -4 93 93 S 3 6 30.48 1032 5 8 N/A

Powered by AerisWeather